GW7270 Weather Reports


time (UTC)temp
C
wind
direction
speed
KPH
gust
KPH
rain 1hr
cm
rain 24hr
cm
rain mn
cm
humidity
%
barometer
mb
20260510163641 6 312 16.1 27.4 0.00 0.00 0.00 64 1019.5
20260510163140 6 311 17.7 27.4 0.00 0.00 0.00 66 1019.6
20260510162125 6 307 16.1 32.2 0.00 0.00 0.00 68 1019.6
20260510161624 6 312 14.5 30.6 0.00 0.00 0.00 70 1019.5
20260510161124 6 331 12.9 33.8 0.00 0.00 0.00 69 1019.4
20260510160624 6 315 17.7 33.8 0.00 0.00 0.00 71 1019.3
20260510160124 6 310 12.9 32.2 0.00 0.00 0.00 71 1019.2
20260510155624 6 314 17.7 32.2 0.00 0.00 0.00 72 1019.1
20260510155124 5 317 14.5 27.4 0.00 0.00 0.00 73 1019.0
20260510154624 5 311 16.1 33.8 0.00 0.00 0.00 73 1018.9
20260510154124 5 302 19.3 33.8 0.00 0.00 0.00 72 1018.8
20260510153109 5 299 17.7 30.6 0.00 0.00 0.00 72 1018.5
20260510152609 5 314 19.3 30.6 0.00 0.00 0.00 74 1018.7
20260510151553 5 308 16.1 30.6 0.00 0.00 0.00 76 1018.7
20260510151053 5 305 17.7 33.8 0.00 0.00 0.00 77 1018.5
20260510150552 5 318 19.3 33.8 0.00 0.00 0.00 77 1018.3
20260510150051 5 323 16.1 32.2 0.00 0.00 0.00 79 1017.8
20260510145551 5 303 17.7 32.2 0.00 0.00 0.00 78 1017.5
20260510145051 5 308 19.3 32.2 0.00 0.00 0.00 77 1017.6
20260510144551 5 306 16.1 27.4 0.00 0.00 0.00 76 1017.5
20260510144051 5 315 12.9 25.7 0.00 0.00 0.00 77 1018.1
20260510143551 5 312 12.9 35.4 0.00 0.00 0.00 78 1017.3
20260510143050 5 335 16.1 35.4 0.00 0.00 0.00 78 1017.4
20260510141518 5 316 16.1 32.2 0.00 0.00 0.00 78 1017.0
20260510140502 5 326 14.5 32.2 0.00 0.00 0.00 77 1017.2
20260510140001 5 327 16.1 32.2 0.00 0.00 0.00 80 1017.2
20260510135501 5 318 20.9 32.2 0.00 0.00 0.00 79 1016.2
20260510135000 5 312 8.0 25.7 0.00 0.00 0.00 79 1016.9
20260510133945 5 319 17.7 30.6 0.00 0.00 0.00 79 1016.7
20260510133444 5 316 14.5 30.6 0.00 0.00 0.00 79 1016.8
20260510132428 5 307 14.5 27.4 0.00 0.00 0.00 79 1016.5
20260510131928 5 313 16.1 25.7 0.00 0.00 0.00 78 1016.5
20260510130913 5 320 16.1 27.4 0.00 0.00 0.00 78 1016.4
20260510130412 5 318 9.7 25.7 0.00 0.00 0.00 77 1016.2
20260510125356 5 305 12.9 25.7 0.00 0.00 0.00 79 1015.7
20260510124856 5 321 16.1 27.4 0.00 0.00 0.00 78 1015.8
20260510124356 5 302 14.5 27.4 0.00 0.00 0.00 77 1015.8
20260510123856 5 335 11.3 27.4 0.00 0.00 0.00 78 1015.7
20260510123356 5 313 12.9 24.1 0.00 0.00 0.00 78 1015.8
20260510122855 4 313 14.5 25.7 0.00 0.00 0.00 80 1015.8
20260510122355 4 312 11.3 25.7 0.00 0.00 0.00 80 1015.7
20260510121855 5 326 9.7 20.9 0.00 0.00 0.00 80 1014.6
20260510121355 4 321 12.9 24.1 0.00 0.00 0.00 80 1015.3
20260510120855 4 311 12.9 27.4 0.00 0.00 0.00 80 1014.9
20260510120354 4 318 16.1 27.4 0.00 0.00 0.00 80 1014.6
20260510115854 4 312 12.9 25.7 0.00 0.00 0.00 80 1014.5
20260510115354 4 324 11.3 25.7 0.00 0.00 0.00 81 1014.4
20260510114854 4 306 12.9 25.7 0.00 0.00 0.00 80 1014.4
20260510114354 3 315 12.9 25.7 0.00 0.00 0.00 81 1014.3
20260510113854 3 314 11.3 25.7 0.00 0.00 0.00 82 1014.5
20260510112839 3 312 9.7 22.5 0.00 0.00 0.00 84 1014.0
20260510112339 3 313 8.0 20.9 0.00 0.00 0.00 85 1014.1
20260510111839 3 316 9.7 19.3 0.00 0.00 0.00 85 1013.8
20260510111338 3 302 8.0 19.3 0.00 0.00 0.00 85 1013.8
20260510110839 3 307 9.7 19.3 0.00 0.00 0.00 86 1013.4
20260510110338 2 314 8.0 19.3 0.00 0.00 0.00 86 1013.6
20260510105838 2 333 4.8 22.5 0.00 0.00 0.00 87 1013.4
20260510104821 2 330 8.0 22.5 0.00 0.00 0.00 87 1013.1
20260510103805 2 338 4.8 22.5 0.00 0.00 0.00 87 1012.2
20260510102750 2 326 9.7 22.5 0.00 0.00 0.00 87 1011.8
20260510102249 2 329 12.9 22.5 0.00 0.00 0.00 87 1011.8
20260510101748 2 324 8.0 19.3 0.00 0.00 0.00 87 1011.9
20260510100731 2 331 9.7 19.3 0.00 0.00 0.00 88 1011.7
20260510100231 2 321 6.4 19.3 0.00 0.00 0.00 88 1011.5
20260510095731 2 336 8.0 19.3 0.00 0.00 0.00 88 1011.2
20260510095230 2 312 4.8 19.3 0.00 0.00 0.00 87 1011.2
20260510094729 2 322 6.4 19.3 0.00 0.00 0.00 87 1011.2
20260510094228 2 325 8.0 19.3 0.00 0.00 0.00 87 1011.2
20260510093727 2 327 8.0 19.3 0.00 0.00 0.00 87 1011.4
20260510093227 2 320 9.7 19.3 0.00 0.00 0.00 87 1010.8
20260510092210 2 306 6.4 19.3 0.00 0.00 0.00 87 1010.9
20260510091710 2 301 9.7 19.3 0.00 0.00 0.00 87 1010.6
20260510091209 2 312 6.4 19.3 0.00 0.00 0.00 87 1010.5
20260510090709 2 311 11.3 19.3 0.00 0.00 0.00 87 1010.5
20260510090208 2 308 6.4 19.3 0.00 0.00 0.00 87 1010.3
20260510085152 2 308 8.0 19.3 0.00 0.00 0.00 87 1010.4
20260510084652 2 330 8.0 19.3 0.00 0.00 0.00 87 1010.0
20260510084151 2 323 6.4 19.3 0.00 0.00 0.00 87 1010.2
20260510083134 2 329 9.7 19.3 0.00 0.00 0.00 87 1010.0
20260510082634 2 337 8.0 19.3 0.00 0.00 0.00 88 1010.1
20260510082134 2 328 6.4 19.3 0.00 0.00 0.00 88 1009.5
20260510081633 2 326 6.4 19.3 0.00 0.00 0.00 88 1009.1
20260510081133 2 329 6.4 19.3 0.00 0.00 0.00 88 1009.1
20260510080633 2 328 8.0 19.3 0.00 0.00 0.00 88 1009.3
20260510075618 2 316 6.4 19.3 0.00 0.00 0.00 88 1008.7
20260510075118 2 314 8.0 19.3 0.00 0.00 0.00 87 1008.7
20260510074102 2 308 8.0 20.9 0.00 0.00 0.00 87 1008.7
20260510073602 2 306 8.0 20.9 0.00 0.00 0.00 86 1008.6
20260510073101 2 309 9.7 20.9 0.00 0.00 0.00 86 1008.5
20260510072045 3 315 9.7 22.5 0.00 0.00 0.00 85 1008.2
20260510071545 3 312 8.0 22.5 0.00 0.00 0.00 85 1008.2
20260510070531 3 331 12.9 24.1 0.00 0.00 0.00 84 1008.0
20260510070030 3 330 9.7 22.5 0.00 0.00 0.00 84 1007.9
20260510065530 3 332 12.9 22.5 0.00 0.00 0.00 84 1007.8
20260510065030 3 331 9.7 20.9 0.00 0.00 0.00 83 1007.7
20260510064015 3 329 12.9 24.1 0.00 0.00 0.00 83 1007.5
20260510062959 3 333 9.7 20.9 0.00 0.00 0.00 83 1007.6
20260510062459 3 320 9.7 20.9 0.00 0.00 0.00 83 1007.9
20260510061958 3 320 9.7 24.1 0.00 0.00 0.00 83 1007.8
20260510061457 3 324 12.9 24.1 0.00 0.00 0.00 82 1007.8
20260510060957 3 317 14.5 22.5 0.00 0.00 0.00 82 1007.6
20260510060457 3 329 9.7 24.1 0.00 0.00 0.00 82 1007.5
20260510055956 3 324 14.5 24.1 0.00 0.00 0.00 81 1007.5
20260510055456 3 327 11.3 20.9 0.00 0.00 0.00 81 1007.6
20260510054956 3 323 11.3 25.7 0.00 0.00 0.00 81 1007.3
20260510054455 3 318 12.9 25.7 0.00 0.00 0.00 80 1007.4
20260510053954 3 319 12.9 25.7 0.00 0.00 0.00 80 1007.5
20260510053454 3 314 16.1 25.7 0.00 0.00 0.00 80 1007.4
20260510052954 3 321 12.9 32.2 0.00 0.00 0.00 79 1007.2
20260510052454 3 326 19.3 32.2 0.00 0.00 0.00 79 1006.7
20260510051954 3 325 12.9 24.1 0.00 0.00 0.00 79 1006.5
20260510051454 4 313 12.9 24.1 0.00 0.00 0.00 78 1007.0
20260510050438 4 325 14.5 35.4 0.00 0.00 0.00 78 1006.2
20260510045938 4 319 16.1 35.4 0.00 0.00 0.00 78 1006.0
20260510044406 4 315 16.1 33.8 0.00 0.00 0.00 78 1005.6
20260510043906 4 320 17.7 33.8 0.00 0.00 0.00 78 1005.8
20260510043405 4 324 12.9 30.6 0.00 0.00 0.00 78 1005.4
20260510042904 4 322 16.1 30.6 0.00 0.00 0.00 78 1005.8
20260510042404 4 320 14.5 32.2 0.00 0.00 0.00 79 1005.8
20260510041904 4 318 14.5 32.2 0.00 0.00 0.00 80 1005.6
20260510041403 4 312 12.9 27.4 0.00 0.00 0.00 81 1005.6
20260510040904 4 313 16.1 32.2 0.00 0.00 0.00 81 1005.6
20260510034816 4 312 14.5 27.4 0.00 0.00 0.18 81 1005.2
20260510034315 4 322 14.5 27.4 0.00 0.00 0.18 82 1005.4
20260510033815 4 314 14.5 35.4 0.00 0.00 0.18 83 1005.3
20260510033315 4 328 12.9 35.4 0.00 0.00 0.18 82 1005.3
20260510032814 4 320 11.3 32.2 0.00 0.00 0.18 82 1005.1
20260510032314 4 319 12.9 27.4 0.00 0.00 0.18 82 1005.1
20260510030228 4 315 19.3 30.6 0.00 0.00 0.18 81 1004.6
20260510025728 4 310 16.1 27.4 0.00 0.00 0.18 82 1004.4
20260510025228 4 317 11.3 20.9 0.00 0.00 0.18 82 1004.5
20260510024727 4 320 11.3 35.4 0.00 0.00 0.18 82 1004.4
20260510024226 5 306 12.9 35.4 0.00 0.00 0.18 81 1004.5
20260510023726 5 310 14.5 33.8 0.00 0.00 0.18 80 1004.4
20260510023226 5 317 14.5 33.8 0.00 0.00 0.18 80 1004.2
20260510022726 5 312 14.5 27.4 0.00 0.00 0.18 80 1004.2
20260510022226 5 317 12.9 30.6 0.00 0.00 0.18 79 1004.7
20260510021726 5 322 11.3 30.6 0.00 0.00 0.18 80 1003.2
20260510021225 5 323 16.1 27.4 0.00 0.00 0.18 80 1004.0
20260510020725 5 318 14.5 32.2 0.00 0.00 0.18 79 1003.4
20260510020225 5 318 14.5 32.2 0.00 0.00 0.18 80 1003.5
20260510014652 5 319 12.9 24.1 0.00 0.00 0.18 79 1003.4
20260510014152 5 323 9.7 25.7 0.00 0.00 0.18 78 1002.5
20260510013135 6 321 11.3 25.7 0.00 0.00 0.18 78 1003.1
20260510012634 6 320 14.5 25.7 0.00 0.00 0.18 78 1003.2
20260510010548 6 330 12.9 33.8 0.00 0.00 0.18 75 1002.5
20260510010047 6 320 14.5 33.8 0.00 0.00 0.18 74 1002.3
20260510005546 6 332 11.3 32.2 0.00 0.00 0.18 74 1002.3
20260510004530 6 331 14.5 33.8 0.00 0.00 0.18 72 1001.9
20260510004029 6 325 17.7 32.2 0.00 0.00 0.18 70 1001.9
20260510003528 7 336 19.3 32.2 0.00 0.00 0.18 68 1001.8
20260510002512 7 334 17.7 33.8 0.00 0.00 0.18 63 1000.3
20260510002012 7 319 19.3 33.8 0.00 0.00 0.18 61 1000.2
20260510001512 7 322 17.7 35.4 0.00 0.00 0.18 61 1000.1
20260510000456 8 328 14.5 33.8 0.00 0.00 0.18 62 1000.0
20260509235441 8 328 17.7 37.0 0.00 0.00 0.18 63 999.7
20260509234940 8 331 14.5 37.0 0.00 0.00 0.18 64 999.3
20260509234438 8 328 19.3 37.0 0.00 0.00 0.18 65 999.5
20260509233938 8 327 16.1 35.4 0.00 0.00 0.18 65 999.1
20260509232922 9 321 17.7 40.2 0.00 0.00 0.18 66 998.8
20260509231905 9 324 17.7 41.8 0.00 0.00 0.18 66 998.7
20260509230850 9 334 17.7 35.4 0.00 0.00 0.18 68 997.1
20260509230350 9 322 19.3 35.4 0.00 0.00 0.18 66 997.6
20260509225850 10 331 22.5 35.4 0.00 0.00 0.18 67 997.6
20260509225350 9 329 14.5 30.6 0.00 0.00 0.18 69 997.7
20260509224850 8 328 16.1 35.4 0.00 0.00 0.18 71 997.3
20260509224350 8 335 16.1 38.6 0.00 0.00 0.18 72 997.6
20260509223849 9 335 17.7 38.6 0.00 0.00 0.18 72 997.2
20260509222317 8 335 12.9 32.2 0.00 0.00 0.18 74 996.9
20260509221817 8 338 17.7 40.2 0.00 0.00 0.18 73 996.9
20260509221316 8 331 17.7 40.2 0.00 0.00 0.18 73 995.9
20260509220815 9 339 20.9 32.2 0.00 0.00 0.18 71 996.3
20260509220314 9 333 24.1 33.8 0.00 0.00 0.18 72 995.6
20260509215814 9 335 17.7 35.4 0.00 0.00 0.18 72 996.2
20260509215313 9 330 19.3 38.6 0.00 0.00 0.18 72 996.2
20260509214813 9 328 19.3 38.6 0.00 0.00 0.18 73 995.8
20260509214313 9 339 22.5 33.8 0.00 0.00 0.18 73 995.9
20260509213813 9 332 17.7 33.8 0.00 0.00 0.18 74 995.8
20260509213312 10 329 16.1 35.4 0.00 0.00 0.18 73 995.2
20260509212811 10 328 17.7 35.4 0.00 0.00 0.18 73 995.5
20260509211755 10 315 16.1 33.8 0.00 0.00 0.18 71 994.6
20260509211255 11 306 14.5 27.4 0.00 0.00 0.18 70 994.7
20260509210238 11 315 14.5 27.4 0.00 0.00 0.18 72 994.3
20260509205738 11 319 14.5 22.5 0.00 0.00 0.18 75 994.6
20260509205237 10 324 8.0 22.5 0.00 0.00 0.18 80 994.4
20260509204736 8 295 6.4 19.3 0.00 0.00 0.18 80 994.3
20260509204236 8 312 8.0 19.3 0.00 0.00 0.18 80 994.1
20260509203736 7 300 8.0 22.5 0.00 0.00 0.18 82 994.0
20260509203236 7 286 6.4 22.5 0.00 0.00 0.18 83 994.0
20260509202735 7 292 9.7 19.3 0.00 0.00 0.18 83 994.1
20260509202235 8 275 9.7 19.3 0.00 0.00 0.18 84 994.1
20260509201735 8 256 6.4 17.7 0.00 0.00 0.18 85 993.9
20260509201235 8 228 4.8 17.7 0.00 0.00 0.18 84 993.2
20260509200218 9 246 3.2 17.7 0.00 0.00 0.18 83 993.1
20260509195201 10 237 6.4 17.7 0.00 0.00 0.18 79 993.1
20260509194700 11 260 6.4 17.7 0.00 0.00 0.18 81 993.4
20260509194200 10 265 1.6 17.7 0.00 0.00 0.18 87 993.2
20260509193659 8 228 3.2 17.7 0.00 0.00 0.18 85 992.9
20260509193159 9 254 4.8 17.7 0.00 0.00 0.18 83 993.4
20260509192658 11 231 4.8 17.7 0.00 0.00 0.18 81 992.9
20260509192158 10 248 3.2 17.7 0.00 0.00 0.18 85 992.9
20260509191658 8 249 3.2 17.7 0.00 0.00 0.18 88 993.0
20260509191158 7 233 4.8 17.7 0.00 0.00 0.18 90 992.9
20260509190657 7 241 6.4 22.5 0.00 0.00 0.18 91 993.5
20260509190157 7 240 4.8 22.5 0.00 0.00 0.18 90 993.3
20260509185657 8 252 6.4 19.3 0.00 0.00 0.18 89 993.3
20260509185156 8 266 4.8 25.7 0.00 0.00 0.18 89 993.2
20260509184656 8 259 8.0 30.6 0.00 0.00 0.18 89 993.5
20260509184155 8 239 8.0 30.6 0.00 0.00 0.18 89 993.5
20260509183655 8 228 8.0 32.2 0.00 0.00 0.18 88 993.1
20260509183155 9 219 12.9 38.6 0.00 0.00 0.18 87 993.2
20260509182654 10 212 14.5 38.6 0.00 0.00 0.18 87 993.2
20260509182153 10 204 16.1 35.4 0.00 0.00 0.18 86 993.0
20260509181653 10 205 14.5 40.2 0.00 0.00 0.18 87 993.1
20260509181152 10 201 20.9 40.2 0.00 0.00 0.18 86 993.4
20260509180651 10 206 19.3 35.4 0.00 0.00 0.18 86 993.4
20260509180151 10 198 19.3 33.8 0.00 0.00 0.18 85 993.3
20260509175651 10 200 16.1 45.1 0.00 0.00 0.18 84 993.3
20260509175150 10 197 24.1 45.1 0.00 0.00 0.18 83 993.6
20260509174649 10 196 19.3 35.4 0.00 0.00 0.18 85 993.3
20260509174149 8 194 14.5 30.6 0.00 0.00 0.18 86 993.6
20260509173649 9 183 12.9 37.0 0.00 0.00 0.18 84 993.5
20260509173148 9 178 20.9 37.0 0.00 0.00 0.18 84 993.6
20260509172132 10 180 17.7 37.0 0.00 0.00 0.18 84 993.6
20260509171632 10 178 16.1 30.6 0.00 0.00 0.18 84 993.4
20260509170615 10 175 12.9 32.2 0.00 0.00 0.18 83 993.7
20260509170114 10 177 17.7 25.7 0.00 0.00 0.18 82 993.7
20260509165613 10 172 14.5 25.7 0.00 0.00 0.18 82 993.7
20260509165113 10 169 14.5 30.6 0.00 0.00 0.18 82 993.7
20260509164613 10 173 16.1 32.2 0.00 0.00 0.18 82 993.5
20260509164113 10 171 14.5 32.2 0.00 0.00 0.18 84 993.6